星链-5081 (STARLINK-5081 )

导读 | 星芒AI

STARLINK-5081 是 SpaceX 星链计划中的一颗低轨通信卫星,属于星链第三代(v1.5)卫星系列。该卫星于2023年发射,旨在为全球用户提供高速互联网服务。它运行在约550公里高的近地轨道,具备先进的相控阵天线和激光通信技术,以提升网络连接的稳定性和效率。作为星链星座的一部分,STARLINK-5081 有助于扩大覆盖范围,特别是在偏远和网络基础设施薄弱的地区。

基本信息
目录编号:
55759
目录名称:
STARLINK-5081
国际标识:
2023-028U
轨道中心:
EARTH
卫星名称:
星链-5081
卫星全名:
星链-5081 (STARLINK-5081 )
卫星状态:
已陨落 最后检测时间 2025-03-15
发射日期:
2023-03-03 UTC
国别 :
美国 (US)
星等 :
--
轨道信息
数据来源 国际轨道数据
星历时间: 2025-03-15T05:27:03+0800
轨道信息已过期281天
半长轴: 6570.514km
偏心率: 0.0007969
轨道倾角: 69.987°
近地点辐角 215.632°
升交点赤经 37.160°
平近点角 203.099°
近地点: 187.142km
远地点: 197.616km
周期: 88.340分钟
每日圈数: 16.300606
详细信息
固有亮度:
5
最大亮度:
2.5
卫星平台:
Starlink v1.5
覆盖范围:
全球
运营商:
太空探索技术公司
运营商所在国:
美国
制造商(研发单位):
太空探索技术公司
制造商所在国:
美国
使用方式:
暂无
卫星简介
星链(Starlink)计划是由太空探索技术公司(SpaceX)提出的一个巨型低轨卫星互联网星座项目,计划在2019年至2024年间在太空搭建由约1.2万颗卫星组成的“星链”网络,其中1584颗将部署在地球上空550千米处的近地轨道,并从2020年开始工作。该卫星仍在工作。